Simultaneous Nadir Overpasses (SNOs) Predictions

Prediction of SNOs between GOES-17 and METOP-A Satellite Orbit:

Table of predicted SNOs for the next 14.0 days since TLE Epoch: 11/16/2019
Index Date Time (GOES-17) GOES-17 Lat,Lon METOP-A Lat,Lon Distance(km) Time Diff (sec)
1 11/16/2019 18:13:05 0.02,-137.22 0.53,-139.54 264.73 80
2 11/17/2019 17:55:05 0.03,-137.21 -0.55,-134.56 302.42 80
3 11/19/2019 06:14:06 -0.03,-137.19 -0.46,-139.18 227.10 80
4 11/20/2019 05:50:47 -0.04,-137.18 0.62,-134.20 339.58 80
5 11/21/2019 18:09:39 0.04,-137.18 0.39,-138.79 183.39 80
6 11/22/2019 17:51:40 0.04,-137.17 -0.69,-133.80 383.04 80
7 11/24/2019 06:08:01 -0.04,-137.14 -0.32,-138.43 147.39 80
8 11/25/2019 05:50:02 -0.04,-137.12 0.76,-133.45 418.65 80
9 11/26/2019 18:06:14 0.04,-137.11 0.25,-138.04 105.43 80
10 11/27/2019 17:48:14 0.05,-137.10 -0.84,-133.05 460.31 80
11 11/29/2019 06:04:36 -0.05,-137.05 -0.17,-137.68 71.18 80




NCC Satellite Simultaneous Nadir Overpasses (SNOs) Prediction Service
